Home > Time Zones > World Clock > Weather > U.S.A. > Hilo > Past weeks

Flag for U.S.A. Weather past 2 weeks in Hilo, Hawaii, U.S.A.

Now
76 °F

Partly cloudy.


Feels Like: 77 °F
Forecast: 73 / 83 °F
Wind: 5 mph from Northwest

Location: Hilo International Airport

Current Time: Aug 21, 2014 at 10:09:59 PM

Latest Report: Aug 21, 2014 at 9:53 PM


Visibility: 10 mi

Pressure: 30.05 "Hg

Humidity: 82%

Dew point: 70 °F

Location of HiloLocation

Historic Weather in Hilo — Graph

°F

Hilo temperature yesterday

Maximum temperature yesterday: 85 °F (at 11:53 AM)
Minimum temperature yesterday: 69 °F (at 5:53 AM)
Average temperature yesterday: 77 °F

Past Weeks' High & Low Weather Summary

 TemperatureHumidityPressure
High85 °F (Aug 11, 10:53 AM)100% (Aug 12, 6:44 AM)30.06 "Hg (Aug 12, 6:44 AM)
Low69 °F (Aug 19, 5:53 AM)51% (Aug 16, 11:53 AM)29.87 "Hg (Aug 7, 3:40 PM)
Average77 °F82%29.98 "Hg
* Reported Aug 6 8:53 PM — Aug 21 8:53 PM, Hilo, Weather by CustomWeather, © 2014

Note: Actual official high and low records may vary slightly from our data, if they occured in-between our weather recording intervals... More about our weather records

Advertising

Hilo weather history for previous 24 hours

 ConditionsComfort  
Time TempWeatherWind HumidityBarometerVisibility
8:53 PM
Aug 21
77 °FClear.3 mph77%30.03 "Hg10 mi
7:53 PM78 °FPassing clouds.6 mph76%30.01 "Hg10 mi
6:53 PM79 °FPassing clouds.5 mph74%30.00 "Hg10 mi
5:53 PM82 °FBroken clouds.9 mph70%29.98 "Hg10 mi
4:53 PM83 °FSunny.8 mph68%29.97 "Hg10 mi
3:53 PM84 °FPassing clouds.8 mph63%29.98 "Hg10 mi
2:53 PM83 °FPartly sunny.8 mph70%29.99 "Hg10 mi
1:53 PM82 °FCloudy.8 mph65%30.00 "Hg10 mi
1:14 PM81 °FBroken clouds.10 mph74%30.01 "Hg10 mi
1:05 PM81 °FPartly sunny.15 mph74%30.02 "Hg10 mi
12:53 PM84 °FPassing clouds.10 mph70%30.01 "Hg10 mi
12:07 PM82 °FScattered clouds.8 mph70%30.03 "Hg10 mi
11:53 AM82 °FPartly sunny.6 mph72%30.03 "Hg10 mi
10:53 AM82 °FMore clouds than sun.3 mph70%30.05 "Hg10 mi
10:01 AM81 °FMore clouds than sun.5 mph74%30.06 "Hg10 mi
9:00 AM77 °FOvercast.6 mph88%30.06 "Hg10 mi
7:53 AM74 °FLight rain. Fog.5 mph91%30.05 "Hg4 mi
6:53 AM72 °FMostly cloudy.9 mph93%30.02 "Hg10 mi
6:26 AM72 °FLight rain. Broken clouds.9 mph94%30.02 "Hg9 mi
5:53 AM73 °FHeavy rain. Fog.6 mph94%30.01 "Hg3 mi
5:26 AM73 °FMostly cloudy.7 mph94%30.00 "Hg10 mi
4:57 AM73 °FOvercast.9 mph94%29.99 "Hg10 mi
4:28 AM73 °FHeavy rain. Fog.9 mph94%29.98 "Hg3 mi
4:18 AM73 °FHeavy rain. Fog.6 mph94%29.99 "Hg2 mi
3:53 AM73 °FLight rain. Mostly cloudy.5 mph97%29.97 "Hg8 mi
2:53 AM74 °FLight rain. Fog.6 mph97%29.97 "Hg4 mi
2:44 AM73 °FRain. Fog.6 mph100%29.97 "Hg3 mi
2:06 AM73 °FLight rain. Fog.5 mph100%29.98 "Hg5 mi
1:53 AM74 °FLight rain. Overcast.3 mph97%29.98 "Hg7 mi
1:34 AM73 °FLight rain. Fog.6 mph100%29.99 "Hg6 mi
12:53 AM74 °FLight rain. Fog.3 mph97%29.99 "Hg5 mi
12:39 AM73 °FLight rain. Fog.3 mph100%30.00 "Hg3 mi
12:12 AM75 °FLight rain. Fog.No wind94%30.00 "Hg2 mi
11:53 PM
Aug 20
74 °FRain. Fog.No wind97%30.00 "Hg2 mi
11:21 PM73 °FHeavy rain. Fog.6 mph100%30.00 "Hg2 mi
11:01 PM74 °FHeavy rain. Fog.No wind97%30.01 "Hg2 mi
10:39 PM73 °FHeavy rain. Fog.3 mph100%30.01 "Hg2 mi
10:13 PM75 °FHeavy rain. Fog.6 mph94%30.01 "Hg1 mi
10:04 PM73 °FHeavy rain. Fog.6 mph100%30.01 "Hg2 mi
Weather by CustomWeather, © 2014

See weather overviewHow to use our weather pages